IRIDIUM 84 [+] (25530 NORAD) Tracking and Keplerian Element Data

This shows tracking and keplerian element data for the satellite.

Feedback or suggestion? Click here.




ElementValue
Catalog25530
NameIRIDIUM 84 [+]
Epoch Orbit3322
Epoch Day195.94153849
Epoch Year2018
RAAN185.7652
Inclination86.3967
Eccentricity0.0002258
Argument of Perigee87.4793
Mean Anonmoly272.6662
Mean Motion14.3421946
Decay Rate1.4E-07
L11 25530U 98066D 18195.94153849 .00000014 00000-0 -20063-5 0 9993
L22 25530 86.3967 185.7652 0002258 87.4793 272.6662 14.34219460 33220

Live tracking and technical data element details for IRIDIUM 84 [+] (NORAD 25530). IRIDIUM 84 [+] can be tracked NOW for your location showing map with azimuth and elevation plus other details from your city location.

Track the satellite on the map from your city or location and see movement details for azimuth, elevation, latitude, longitude, range, height, and movement on the map or in text.







IsCatalogInMostPopularTable: catalog: 25530, numindb: 30
Update: records affected: 1



GetName: 25530 IRIDIUM 84 [+]

Hit Count: updated at: Mon, 16 Jul 2018 14:44:46 GMT